{"data":{"norad_id":57132,"epoch":"2026-09-20T08:13:30.218304Z","epoch_age_seconds":134547,"freshness":"FRESH","line1":"1 57132U 23090AH  26263.34271086 -.00000041  00000+0  80190-5 0  9990","line2":"2 57132  43.0006 262.1144 0001434 270.0668  90.0020 15.27575638179911","mean_motion":15.27575638,"eccentricity":0.0001434,"inclination_deg":43.0006,"raan_deg":262.1144,"arg_perigee_deg":270.0668,"mean_anomaly_deg":90.002,"bstar":8.019e-6,"rev_number":17991,"period_min":94.267017892832,"perigee_km":482.07826150877,"apogee_km":484.04605342714,"semimajor_km":6861.199157468,"source":"CELESTRAK","updated_at":"2026-09-21T09:00:33.564425Z"}}